Home   Weather   Kassel   Past weeks

Flag for Germany Past Weather in Kassel, Hesse, Germany — Yesterday and Last 2 Weeks

Now
25 °F

Ice fog.


Feels Like: 20 °F
Forecast: 17 / 33 °F
Wind: 3 mph from Northeast

Location: Kassel / Calden

Current Time: Dec 4, 2016 at 3:13:55 pm

Latest Report: Dec 4, 2016 at 2:50 pm


Visibility: 0 mi

Pressure: 30.36 "Hg

Humidity: 100%

Dew Point: 25 °F

Location of KasselLocation

Past Weather in Kassel — Graph

°F

Kassel Temperature Yesterday

Maximum temperature yesterday: 34 °F (at 1:50 pm)
Minimum temperature yesterday: 21 °F (at 7:20 am)
Average temperature yesterday: 28 °F

High & Low Weather Summary for the Past Weeks

 TemperatureHumidityPressure
High55 °F (Nov 20, 5:20 pm)100% (Nov 23, 7:20 am)30.57 "Hg (Nov 23, 7:20 am)
Low16 °F (Dec 4, 7:20 am)17% (Dec 3, 10:20 am)29.45 "Hg (Nov 20, 12:20 pm)
Average39 °F84%30.11 "Hg
* Reported Nov 19 1:20 pm — Dec 4 1:50 pm, Kassel, Weather by CustomWeather, © 2016

Note: Actual official high and low records may vary slightly from our data, if they occured in-between our weather recording intervals... More about our weather records

Advertising

Kassel Weather History for the Previous 24 Hours

Scroll right to see more
 ConditionsComfort  
Time TempWeatherWind HumidityBarometerVisibility
1:50 pm
Sun, Dec 4
25 °FIce fog.1 mph50%30.36 "Hg0 mi
1:20 pm25 °FIce fog.3 mph100%30.36 "Hg0 mi
1:00 pm27 °FIce fog.3 mph100%30.36 "Hg1 mi
12:50 pm28 °FLight fog.1 mph100%30.36 "Hg6 mi
12:20 pm27 °FClear.3 mph100%30.39 "Hg6 mi
11:50 am25 °FLight fog.3 mph100%30.39 "Hg6 mi
11:20 am25 °FLight fog.2 mph100%30.39 "HgN/A
10:50 am23 °FClear.1 mph100%30.39 "HgN/A
10:20 am21 °FIce fog.1 mph100%30.39 "Hg1 mi
9:50 am19 °FIce fog.2 mph100%30.39 "Hg0 mi
9:20 am19 °FIce fog.2 mph93%30.36 "Hg1 mi
8:50 am16 °FIce fog.1 mph100%30.36 "Hg1 mi
8:20 am18 °FCold.1 mph93%30.36 "HgN/A
7:50 am18 °FIce fog.1 mph93%30.36 "Hg0 mi
7:20 am16 °FIce fog.1 mph100%30.36 "Hg1 mi
7:50 pm
Sat, Dec 3
27 °FClear.1 mph100%30.33 "Hg4 mi
7:20 pm27 °FClear.1 mph100%30.33 "Hg4 mi
6:50 pm27 °FClear.1 mph100%30.30 "Hg4 mi
6:20 pm25 °FClear.1 mph100%30.30 "Hg5 mi
5:50 pm28 °FClear.1 mph100%30.30 "Hg6 mi
5:20 pm28 °FLight fog.2 mph100%30.30 "Hg6 mi
4:50 pm28 °FLight fog.1 mph100%30.30 "HgN/A
4:20 pm28 °FLight fog.2 mph100%30.30 "HgN/A
3:50 pm30 °FLight fog.1 mph100%30.30 "HgN/A
3:20 pm32 °FLight fog.2 mph93%30.27 "HgN/A
Weather by CustomWeather, © 2016

See weather overviewHow to use our weather pages